Volver al catálogo

CZ-6A DEB

ActivoPO
NORAD 61302·DEBRIS·🇨🇳 China

Lanzado Aug 6, 2024 desde Taiyuan Satellite Launch Center

Loading…

Próximos Pases (próximas 24 horas)

TLE

ActualizadoSource: Space-Track

Época: Sep 14, 2026, 00:07 UTC

1 61302U 24140TP  26257.00523319  .00005662  00000-0  11554-2 0  9995
2 61302  88.8912 249.7868 0056274 330.6663  29.1393 14.59828431108466

Sigue CZ-6A DEB en tiempo real con AllMySat

Download on the App Store